| time (UTC) | temp F | wind direction | speed MPH | gust MPH | rain 1hr in | rain 24hr in | rain mn in | humidity % | barometer mb |
| 20260509203351 | 89 | 190 | 0.0 | 0.0 | 0.00 | 0.01 | 0.01 | 61 | 1006.4 |
| 20260509202847 | 89 | 190 | 0.0 | 0.0 | 0.00 | 0.01 | 0.01 | 61 | 1006.5 |
| 20260509202359 | 89 | 190 | 0.0 | 0.0 | 0.00 | 0.01 | 0.01 | 63 | 1006.5 |
| 20260509201840 | 88 | 190 | 0.0 | 3.0 | 0.00 | 0.01 | 0.01 | 63 | 1006.6 |
| 20260509201341 | 87 | 190 | 1.0 | 3.0 | 0.00 | 0.01 | 0.01 | 63 | 1006.6 |
| 20260509200844 | 87 | 190 | 1.0 | 6.0 | 0.00 | 0.01 | 0.01 | 63 | 1006.6 |
| 20260509200345 | 87 | 190 | 2.0 | 6.0 | 0.00 | 0.01 | 0.01 | 63 | 1006.6 |
| 20260509195842 | 88 | 190 | 1.0 | 6.0 | 0.00 | 0.01 | 0.01 | 62 | 1006.6 |
| 20260509195341 | 89 | 190 | 1.0 | 6.0 | 0.00 | 0.01 | 0.01 | 61 | 1006.6 |
| 20260509194839 | 89 | 190 | 2.0 | 6.0 | 0.00 | 0.01 | 0.01 | 62 | 1006.6 |
| 20260509194341 | 89 | 190 | 2.0 | 6.0 | 0.00 | 0.01 | 0.01 | 61 | 1006.7 |
| 20260509193840 | 89 | 190 | 1.0 | 4.0 | 0.00 | 0.01 | 0.01 | 61 | 1006.8 |
| 20260509193337 | 88 | 190 | 0.0 | 0.0 | 0.00 | 0.01 | 0.01 | 62 | 1006.9 |
| 20260509192837 | 87 | 190 | 0.0 | 0.0 | 0.00 | 0.01 | 0.01 | 63 | 1006.9 |
| 20260509192335 | 86 | 190 | 0.0 | 2.0 | 0.00 | 0.01 | 0.01 | 63 | 1007.0 |
| 20260509191835 | 86 | 190 | 0.0 | 2.0 | 0.00 | 0.01 | 0.01 | 63 | 1007.0 |
| 20260509191558 | 87 | 190 | 0.0 | 2.0 | 0.00 | 0.01 | 0.01 | 63 | 1007.1 |
| 20260509190829 | 87 | 190 | 0.0 | 2.0 | 0.00 | 0.01 | 0.01 | 63 | 1007.2 |
| 20260509190324 | 87 | 190 | 0.0 | 2.0 | 0.00 | 0.01 | 0.01 | 63 | 1007.3 |
| 20260509185826 | 88 | 190 | 0.0 | 2.0 | 0.00 | 0.01 | 0.01 | 62 | 1007.3 |
| 20260509185323 | 88 | 190 | 0.0 | 2.0 | 0.00 | 0.01 | 0.01 | 62 | 1007.4 |
| 20260509184815 | 87 | 190 | 0.0 | 2.0 | 0.00 | 0.01 | 0.01 | 62 | 1007.4 |
| 20260509184313 | 87 | 190 | 1.0 | 6.0 | 0.00 | 0.01 | 0.01 | 63 | 1007.5 |
| 20260509183812 | 86 | 190 | 1.0 | 6.0 | 0.00 | 0.01 | 0.01 | 62 | 1007.6 |
| 20260509183551 | 87 | 190 | 1.0 | 5.0 | 0.00 | 0.01 | 0.01 | 62 | 1007.6 |
| 20260509182807 | 87 | 190 | 2.0 | 5.0 | 0.00 | 0.01 | 0.01 | 62 | 1007.7 |
| 20260509182309 | 87 | 190 | 2.0 | 5.0 | 0.00 | 0.01 | 0.01 | 62 | 1007.7 |
| 20260509181804 | 87 | 190 | 1.0 | 5.0 | 0.00 | 0.01 | 0.01 | 62 | 1007.8 |
| 20260509181302 | 87 | 190 | 1.0 | 4.0 | 0.00 | 0.01 | 0.01 | 62 | 1007.9 |
| 20260509180804 | 85 | 190 | 1.0 | 4.0 | 0.00 | 0.01 | 0.01 | 62 | 1008.0 |
| 20260509180301 | 85 | 190 | 2.0 | 5.0 | 0.00 | 0.01 | 0.01 | 62 | 1008.1 |
| 20260509175800 | 86 | 190 | 2.0 | 5.0 | 0.00 | 0.01 | 0.01 | 62 | 1008.2 |
| 20260509175259 | 86 | 190 | 2.0 | 5.0 | 0.00 | 0.01 | 0.01 | 62 | 1008.3 |
| 20260509174801 | 86 | 190 | 1.0 | 5.0 | 0.00 | 0.01 | 0.01 | 62 | 1008.3 |
| 20260509174256 | 87 | 190 | 2.0 | 7.0 | 0.00 | 0.01 | 0.01 | 62 | 1008.3 |
| 20260509173758 | 87 | 190 | 1.0 | 7.0 | 0.00 | 0.01 | 0.01 | 61 | 1008.4 |
| 20260509173252 | 86 | 190 | 1.0 | 6.0 | 0.00 | 0.01 | 0.01 | 60 | 1008.4 |
| 20260509172757 | 85 | 190 | 1.0 | 6.0 | 0.00 | 0.01 | 0.01 | 61 | 1008.4 |
| 20260509172251 | 85 | 190 | 2.0 | 7.0 | 0.00 | 0.01 | 0.01 | 60 | 1008.4 |
| 20260509171748 | 85 | 190 | 2.0 | 7.0 | 0.00 | 0.01 | 0.01 | 60 | 1008.4 |
| 20260509170747 | 85 | 190 | 0.0 | 0.0 | 0.00 | 0.01 | 0.01 | 60 | 1008.5 |
| 20260509170248 | 85 | 190 | 1.0 | 3.0 | 0.00 | 0.01 | 0.01 | 60 | 1008.5 |
| 20260509165744 | 85 | 190 | 1.0 | 3.0 | 0.00 | 0.01 | 0.01 | 58 | 1008.4 |
| 20260509165517 | 84 | 190 | 1.0 | 3.0 | 0.00 | 0.01 | 0.01 | 56 | 1008.6 |
| 20260509164743 | 84 | 190 | 2.0 | 6.0 | 0.00 | 0.01 | 0.01 | 56 | 1008.6 |
| 20260509164244 | 84 | 190 | 2.0 | 6.0 | 0.00 | 0.01 | 0.01 | 56 | 1008.5 |
| 20260509163745 | 84 | 190 | 1.0 | 6.0 | 0.00 | 0.01 | 0.01 | 51 | 1008.5 |
| 20260509163244 | 83 | 190 | 1.0 | 7.0 | 0.00 | 0.01 | 0.01 | 43 | 1008.4 |
| 20260509163018 | 83 | 190 | 4.0 | 10.0 | 0.00 | 0.01 | 0.01 | 42 | 1008.4 |
| 20260509162241 | 82 | 190 | 5.0 | 10.0 | 0.00 | 0.01 | 0.01 | 44 | 1008.3 |
| 20260509161742 | 82 | 190 | 5.0 | 9.0 | 0.00 | 0.01 | 0.01 | 24 | 1008.1 |
| 20260509161250 | 82 | 190 | 5.0 | 9.0 | 0.00 | 0.01 | 0.01 | 30 | 1008.2 |
| 20260509160742 | 82 | 190 | 5.0 | 8.0 | 0.00 | 0.01 | 0.01 | 12 | 1008.2 |
| 20260509160248 | 81 | 190 | 4.0 | 8.0 | 0.00 | 0.01 | 0.01 | 10 | 1008.3 |
| 20260509155743 | 81 | 190 | 4.0 | 8.0 | 0.00 | 0.01 | 0.01 | 1 | 1008.3 |
| 20260509155236 | 81 | 190 | 3.0 | 8.0 | 0.00 | 0.01 | 0.01 | 1 | 1008.2 |
| 20260509155007 | 80 | 190 | 3.0 | 6.0 | 0.00 | 0.01 | 0.01 | 1 | 1008.4 |
| 20260509154509 | 80 | 190 | 3.0 | 6.0 | 0.00 | 0.01 | 0.01 | 1 | 1008.3 |
| 20260509153737 | 80 | 190 | 3.0 | 8.0 | 0.00 | 0.01 | 0.01 | 1 | 1008.3 |
| 20260509153235 | 79 | 190 | 3.0 | 8.0 | 0.00 | 0.01 | 0.01 | 1 | 1008.4 |
| 20260509152738 | 79 | 190 | 2.0 | 6.0 | 0.00 | 0.01 | 0.01 | 1 | 1008.4 |
| 20260509152237 | 78 | 190 | 1.0 | 4.0 | 0.00 | 0.01 | 0.01 | 1 | 1008.5 |
| 20260509151737 | 78 | 190 | 0.0 | 2.0 | 0.00 | 0.01 | 0.01 | 1 | 1008.7 |
| 20260509151240 | 78 | 190 | 0.0 | 2.0 | 0.00 | 0.01 | 0.01 | 1 | 1008.7 |
| 20260509151008 | 78 | 190 | 0.0 | 0.0 | 0.00 | 0.01 | 0.01 | 1 | 1008.5 |
| 20260509150234 | 77 | 190 | 0.0 | 0.0 | 0.00 | 0.01 | 0.01 | 1 | 1008.6 |
| 20260509145739 | 77 | 190 | 0.0 | 0.0 | 0.01 | 0.01 | 0.01 | 1 | 1008.6 |
| 20260509145233 | 76 | 190 | 0.0 | 0.0 | 0.01 | 0.01 | 0.01 | 1 | 1008.5 |
| 20260509144729 | 76 | 190 | 0.0 | 0.0 | 0.01 | 0.01 | 0.01 | 1 | 1008.4 |
| 20260509144226 | 76 | 190 | 0.0 | 0.0 | 0.01 | 0.01 | 0.01 | 1 | 1008.3 |
| 20260509143726 | 76 | 190 | 0.0 | 0.0 | 0.01 | 0.01 | 0.01 | 1 | 1008.3 |
| 20260509143221 | 76 | 190 | 0.0 | 0.0 | 0.01 | 0.01 | 0.01 | 1 | 1008.3 |
| 20260509142721 | 75 | 190 | 0.0 | 0.0 | 0.01 | 0.01 | 0.01 | 1 | 1008.4 |
| 20260509142213 | 75 | 190 | 0.0 | 0.0 | 0.01 | 0.01 | 0.01 | 1 | 1008.4 |
| 20260509141709 | 75 | 190 | 0.0 | 0.0 | 0.01 | 0.01 | 0.01 | 1 | 1008.3 |
| 20260509141210 | 75 | 190 | 0.0 | 0.0 | 0.01 | 0.01 | 0.01 | 1 | 1008.2 |
| 20260509140709 | 74 | 190 | 0.0 | 0.0 | 0.01 | 0.01 | 0.01 | 1 | 1008.2 |
| 20260509140207 | 74 | 190 | 0.0 | 0.0 | 0.01 | 0.01 | 0.01 | 1 | 1008.2 |
| 20260509135704 | 74 | 190 | 0.0 | 0.0 | 0.00 | 0.00 | 0.00 | 1 | 1008.4 |
| 20260509135437 | 74 | 190 | 0.0 | 0.0 | 0.00 | 0.00 | 0.00 | 1 | 1008.5 |
| 20260509134700 | 74 | 190 | 0.0 | 0.0 | 0.00 | 0.00 | 0.00 | 1 | 1008.5 |
| 20260509134431 | 74 | 190 | 0.0 | 0.0 | 0.00 | 0.00 | 0.00 | 1 | 1008.6 |
| 20260509133151 | 0 | 0.0 | 0.0 | 0.00 | 0.00 | 0.00 | 1008.5 | ||
| 20260509132648 | 0 | 0.0 | 0.0 | 0.00 | 0.00 | 0.00 | 1008.6 | ||
| 20260509132058 | 0 | 0.0 | 0.0 | 0.00 | 0.00 | 0.00 | 1008.5 | ||
| 20260509130958 | 0 | 0.0 | 0.0 | 0.00 | 0.00 | 0.00 | 1008.4 | ||
| 20260509125724 | 0 | 0.0 | 0.0 | 0.00 | 0.00 | 0.00 | 1008.4 | ||
| 20260509124858 | 0 | 0.0 | 0.0 | 0.00 | 0.00 | 0.00 | 1008.2 | ||
| 20260509124358 | 0 | 0.0 | 0.0 | 0.00 | 0.00 | 0.00 | 1008.3 | ||
| 20260509123756 | 0 | 0.0 | 0.0 | 0.00 | 0.00 | 0.00 | 1008.5 | ||
| 20260509123253 | 0 | 0.0 | 0.0 | 0.00 | 0.00 | 0.00 | 1008.3 | ||
| 20260509122658 | 0 | 0.0 | 0.0 | 0.00 | 0.00 | 0.00 | 1008.2 | ||
| 20260509122158 | 0 | 0.0 | 0.0 | 0.00 | 0.00 | 0.00 | 1008.2 | ||
| 20260509121654 | 0 | 0.0 | 0.0 | 0.00 | 0.00 | 0.00 | 1008.2 | ||
| 20260509121158 | 0 | 0.0 | 0.0 | 0.00 | 0.00 | 0.00 | 1008.1 | ||
| 20260509120651 | 0 | 190 | 0.0 | 0.0 | 0.00 | 0.00 | 0.00 | 1008.1 | |
| 20260509120104 | 74 | 190 | 0.0 | 0.0 | 0.00 | 0.00 | 0.00 | 1 | 1008.1 |
| 20260509115558 | 74 | 190 | 0.0 | 0.0 | 0.00 | 0.00 | 0.00 | 1 | 1008.1 |
| 20260509114541 | 74 | 190 | 0.0 | 0.0 | 0.00 | 0.00 | 0.00 | 1 | 1008.2 |
| 20260509114309 | 74 | 190 | 0.0 | 0.0 | 0.00 | 0.00 | 0.00 | 1 | 1008.3 |
| 20260509113537 | 74 | 190 | 0.0 | 0.0 | 0.00 | 0.00 | 0.00 | 1 | 1008.4 |
| 20260509113036 | 74 | 190 | 0.0 | 0.0 | 0.00 | 0.00 | 0.00 | 1 | 1008.5 |
| 20260509112534 | 74 | 190 | 0.0 | 0.0 | 0.00 | 0.00 | 0.00 | 1 | 1008.5 |
| 20260509112033 | 74 | 190 | 0.0 | 0.0 | 0.00 | 0.00 | 0.00 | 1 | 1008.5 |
| 20260509111537 | 74 | 190 | 0.0 | 0.0 | 0.00 | 0.00 | 0.00 | 1 | 1008.5 |
| 20260509111033 | 74 | 190 | 0.0 | 0.0 | 0.00 | 0.00 | 0.00 | 1 | 1008.6 |
| 20260509110531 | 74 | 190 | 0.0 | 0.0 | 0.00 | 0.00 | 0.00 | 1 | 1008.5 |
| 20260509110030 | 74 | 190 | 0.0 | 0.0 | 0.00 | 0.00 | 0.00 | 1 | 1008.4 |
| 20260509105529 | 74 | 190 | 0.0 | 0.0 | 0.00 | 0.00 | 0.00 | 1 | 1008.3 |
| 20260509105026 | 74 | 190 | 0.0 | 0.0 | 0.00 | 0.00 | 0.00 | 1 | 1008.5 |
| 20260509104527 | 74 | 190 | 0.0 | 0.0 | 0.00 | 0.00 | 0.00 | 1 | 1008.4 |
| 20260509104026 | 74 | 190 | 0.0 | 0.0 | 0.00 | 0.00 | 0.00 | 1 | 1008.2 |
| 20260509103526 | 74 | 190 | 0.0 | 0.0 | 0.00 | 0.00 | 0.00 | 1 | 1008.2 |
| 20260509103024 | 74 | 190 | 0.0 | 0.0 | 0.00 | 0.00 | 0.00 | 1 | 1008.1 |
| 20260509102518 | 74 | 190 | 0.0 | 1.0 | 0.00 | 0.00 | 0.00 | 1 | 1008.3 |
| 20260509102016 | 74 | 190 | 0.0 | 1.0 | 0.00 | 0.00 | 0.00 | 1 | 1008.4 |
| 20260509101746 | 74 | 190 | 0.0 | 0.0 | 0.00 | 0.00 | 0.00 | 1 | 1008.4 |
| 20260509101013 | 74 | 190 | 0.0 | 0.0 | 0.00 | 0.00 | 0.00 | 1 | 1008.3 |
| 20260509100514 | 74 | 190 | 0.0 | 1.0 | 0.00 | 0.00 | 0.00 | 1 | 1008.1 |
| 20260509100011 | 74 | 190 | 0.0 | 1.0 | 0.00 | 0.00 | 0.00 | 1 | 1008.0 |
| 20260509095233 | 74 | 190 | 0.0 | 1.0 | 0.00 | 0.00 | 0.00 | 1 | 1007.5 |
| 20260509094731 | 74 | 190 | 0.0 | 3.0 | 0.00 | 0.00 | 0.00 | 1 | 1007.3 |
| 20260509094000 | 74 | 190 | 1.0 | 3.0 | 0.00 | 0.00 | 0.00 | 1 | 1007.4 |
| 20260509093725 | 74 | 190 | 0.0 | 3.0 | 0.00 | 0.00 | 0.00 | 1 | 1007.3 |
| 20260509092953 | 74 | 190 | 0.0 | 0.0 | 0.00 | 0.00 | 0.00 | 1 | 1007.4 |
| 20260509092453 | 74 | 190 | 0.0 | 0.0 | 0.00 | 0.00 | 0.00 | 1 | 1007.5 |
| 20260509091955 | 74 | 190 | 0.0 | 0.0 | 0.00 | 0.00 | 0.00 | 1 | 1007.5 |
| 20260509091727 | 74 | 190 | 0.0 | 0.0 | 0.00 | 0.00 | 0.00 | 1 | 1007.4 |
| 20260509090954 | 74 | 190 | 0.0 | 2.0 | 0.00 | 0.00 | 0.00 | 1 | 1007.4 |
| 20260509090449 | 74 | 190 | 0.0 | 2.0 | 0.00 | 0.00 | 0.00 | 1 | 1007.6 |
| 20260509085951 | 74 | 190 | 0.0 | 0.0 | 0.00 | 0.00 | 0.00 | 1 | 1007.6 |
| 20260509085452 | 74 | 190 | 0.0 | 0.0 | 0.00 | 0.00 | 0.00 | 1 | 1007.6 |
| 20260509084952 | 74 | 190 | 0.0 | 0.0 | 0.00 | 0.00 | 0.00 | 1 | 1007.7 |
| 20260509084448 | 74 | 190 | 0.0 | 0.0 | 0.00 | 0.00 | 0.00 | 1 | 1007.8 |
| 20260509083442 | 74 | 190 | 0.0 | 0.0 | 0.00 | 0.00 | 0.00 | 1 | 1008.2 |
| 20260509082943 | 74 | 190 | 0.0 | 0.0 | 0.00 | 0.00 | 0.00 | 1 | 1008.4 |
| 20260509082438 | 74 | 190 | 0.0 | 0.0 | 0.00 | 0.00 | 0.00 | 1 | 1008.6 |
| 20260509081436 | 74 | 190 | 0.0 | 0.0 | 0.00 | 0.00 | 0.00 | 1 | 1008.6 |
| 20260509080931 | 74 | 190 | 0.0 | 0.0 | 0.00 | 0.00 | 0.00 | 1 | 1008.6 |
| 20260509080433 | 74 | 190 | 0.0 | 0.0 | 0.00 | 0.00 | 0.00 | 1 | 1008.4 |
| 20260509075927 | 74 | 190 | 0.0 | 1.0 | 0.00 | 0.00 | 0.00 | 1 | 1008.3 |
| 20260509075427 | 74 | 190 | 0.0 | 1.0 | 0.00 | 0.00 | 0.00 | 1 | 1008.2 |
| 20260509074927 | 74 | 190 | 0.0 | 1.0 | 0.00 | 0.00 | 0.00 | 1 | 1008.1 |
| 20260509074428 | 74 | 190 | 1.0 | 4.0 | 0.00 | 0.00 | 0.00 | 1 | 1008.0 |
| 20260509074201 | 74 | 190 | 1.0 | 4.0 | 0.00 | 0.00 | 0.00 | 1 | 1007.9 |
| 20260509073428 | 74 | 190 | 0.0 | 3.0 | 0.00 | 0.00 | 0.00 | 1 | 1007.9 |
| 20260509072923 | 74 | 190 | 0.0 | 0.0 | 0.00 | 0.00 | 0.00 | 1 | 1008.0 |
| 20260509072422 | 74 | 190 | 1.0 | 4.0 | 0.00 | 0.00 | 0.00 | 1 | 1008.2 |
| 20260509071923 | 74 | 190 | 1.0 | 4.0 | 0.00 | 0.00 | 0.00 | 1 | 1008.0 |
| 20260509071424 | 74 | 190 | 1.0 | 4.0 | 0.00 | 0.00 | 0.00 | 1 | 1008.0 |
| 20260509070925 | 74 | 190 | 1.0 | 4.0 | 0.00 | 0.00 | 0.00 | 1 | 1008.0 |
| 20260509070424 | 74 | 190 | 2.0 | 5.0 | 0.00 | 0.00 | 0.00 | 1 | 1007.9 |
| 20260509065924 | 74 | 190 | 2.0 | 5.0 | 0.00 | 0.00 | 0.00 | 1 | 1007.9 |
| 20260509065419 | 74 | 190 | 2.0 | 4.0 | 0.00 | 0.00 | 0.00 | 1 | 1007.9 |
| 20260509064921 | 74 | 190 | 2.0 | 4.0 | 0.00 | 0.00 | 0.00 | 1 | 1008.0 |
| 20260509064419 | 74 | 190 | 1.0 | 5.0 | 0.00 | 0.00 | 0.00 | 1 | 1008.0 |
| 20260509063920 | 74 | 190 | 1.0 | 5.0 | 0.00 | 0.00 | 0.00 | 1 | 1008.1 |
| 20260509063652 | 74 | 190 | 2.0 | 6.0 | 0.00 | 0.00 | 0.00 | 1 | 1008.0 |
| 20260509062919 | 74 | 190 | 2.0 | 6.0 | 0.00 | 0.00 | 0.00 | 1 | 1007.7 |
| 20260509062418 | 74 | 190 | 3.0 | 7.0 | 0.00 | 0.00 | 0.00 | 1 | 1007.6 |
| 20260509061920 | 74 | 190 | 3.0 | 7.0 | 0.00 | 0.00 | 0.00 | 1 | 1007.6 |
| 20260509061412 | 74 | 190 | 3.0 | 7.0 | 0.00 | 0.00 | 0.00 | 1 | 1007.7 |
| 20260509060909 | 74 | 190 | 4.0 | 7.0 | 0.00 | 0.00 | 0.00 | 1 | 1007.8 |
| 20260509060408 | 74 | 190 | 3.0 | 7.0 | 0.00 | 0.00 | 0.00 | 1 | 1007.8 |
| 20260509055910 | 74 | 190 | 3.0 | 5.0 | 0.00 | 0.00 | 0.00 | 1 | 1007.9 |
| 20260509055410 | 74 | 190 | 3.0 | 7.0 | 0.00 | 0.00 | 0.00 | 1 | 1007.9 |
| 20260509054910 | 74 | 190 | 3.0 | 7.0 | 0.00 | 0.00 | 0.00 | 1 | 1008.1 |
| 20260509054403 | 74 | 190 | 3.0 | 6.0 | 0.00 | 0.00 | 0.00 | 1 | 1008.2 |
| 20260509053902 | 74 | 190 | 3.0 | 6.0 | 0.00 | 0.00 | 0.00 | 1 | 1008.3 |
| 20260509053402 | 74 | 190 | 3.0 | 8.0 | 0.00 | 0.00 | 0.00 | 1 | 1008.3 |
| 20260509052904 | 74 | 190 | 3.0 | 8.0 | 0.00 | 0.00 | 0.00 | 1 | 1008.2 |
| 20260509052403 | 74 | 190 | 3.0 | 6.0 | 0.00 | 0.00 | 0.00 | 1 | 1008.1 |
| 20260509051901 | 74 | 190 | 3.0 | 6.0 | 0.00 | 0.00 | 0.00 | 1 | 1008.1 |
| 20260509051353 | 74 | 190 | 2.0 | 5.0 | 0.00 | 0.00 | 0.00 | 1 | 1008.0 |
| 20260509050854 | 74 | 190 | 3.0 | 8.0 | 0.00 | 0.00 | 0.00 | 1 | 1007.9 |
| 20260509050352 | 74 | 190 | 4.0 | 9.0 | 0.00 | 0.00 | 0.00 | 1 | 1007.9 |
| 20260509045850 | 74 | 190 | 4.0 | 9.0 | 0.00 | 0.00 | 0.00 | 1 | 1007.9 |
| 20260509045349 | 74 | 190 | 3.0 | 6.0 | 0.00 | 0.00 | 0.00 | 1 | 1007.9 |
| 20260509044852 | 74 | 190 | 4.0 | 7.0 | 0.00 | 0.00 | 0.00 | 1 | 1007.9 |
| 20260509044348 | 74 | 190 | 4.0 | 7.0 | 0.00 | 0.00 | 0.00 | 1 | 1007.9 |
| 20260509043842 | 74 | 190 | 4.0 | 7.0 | 0.00 | 0.00 | 0.00 | 1 | 1008.0 |
| 20260509043341 | 74 | 190 | 4.0 | 7.0 | 0.00 | 0.00 | 0.00 | 1 | 1008.0 |
| 20260509042841 | 74 | 190 | 5.0 | 8.0 | 0.00 | 0.00 | 0.00 | 1 | 1008.1 |
| 20260509042616 | 74 | 190 | 4.0 | 8.0 | 0.00 | 0.00 | 0.00 | 1 | 1008.2 |
| 20260509041841 | 74 | 190 | 3.0 | 6.0 | 0.00 | 0.00 | 0.00 | 1 | 1008.3 |
| 20260509041613 | 74 | 190 | 3.0 | 6.0 | 0.00 | 0.00 | 0.00 | 1 | 1008.4 |
| 20260509040843 | 74 | 190 | 3.0 | 5.0 | 0.00 | 0.00 | 0.00 | 1 | 1008.3 |
| 20260509040343 | 74 | 190 | 3.0 | 5.0 | 0.00 | 0.00 | 0.00 | 1 | 1008.3 |
| 20260509035838 | 74 | 190 | 2.0 | 5.0 | 0.00 | 0.00 | 0.00 | 1 | 1008.3 |
| 20260509035336 | 75 | 190 | 2.0 | 5.0 | 0.00 | 0.00 | 0.00 | 1 | 1008.2 |
| 20260509035106 | 75 | 190 | 2.0 | 5.0 | 0.00 | 0.00 | 0.00 | 1 | 1008.0 |
| 20260509034340 | 75 | 190 | 2.0 | 5.0 | 0.00 | 0.00 | 0.00 | 1 | 1007.9 |
| 20260509033836 | 75 | 190 | 1.0 | 4.0 | 0.00 | 0.00 | 0.00 | 1 | 1007.9 |
| 20260509033341 | 75 | 190 | 1.0 | 5.0 | 0.00 | 0.00 | 0.00 | 1 | 1007.8 |
| 20260509032833 | 75 | 190 | 2.0 | 5.0 | 0.00 | 0.00 | 0.00 | 1 | 1007.8 |
| 20260509032333 | 75 | 190 | 2.0 | 4.0 | 0.00 | 0.00 | 0.00 | 1 | 1007.8 |
| 20260509031604 | 75 | 190 | 1.0 | 4.0 | 0.00 | 0.00 | 0.00 | 1 | 1007.8 |
| 20260509030833 | 75 | 190 | 1.0 | 5.0 | 0.00 | 0.00 | 0.00 | 1 | 1007.8 |
| 20260509030339 | 75 | 190 | 2.0 | 5.0 | 0.00 | 0.00 | 0.00 | 1 | 1007.7 |
| 20260509025329 | 75 | 190 | 2.0 | 6.0 | 0.00 | 0.00 | 0.00 | 1 | 1007.7 |
| 20260509024602 | 75 | 190 | 3.0 | 6.0 | 0.00 | 0.00 | 0.00 | 1 | 1007.5 |
| 20260509023825 | 75 | 190 | 4.0 | 7.0 | 0.00 | 0.00 | 0.00 | 1 | 1007.4 |
| 20260509023329 | 75 | 190 | 3.0 | 7.0 | 0.00 | 0.00 | 0.00 | 1 | 1007.2 |
| 20260509023101 | 75 | 190 | 3.0 | 7.0 | 0.00 | 0.00 | 0.00 | 1 | 1007.2 |
| 20260509022327 | 75 | 190 | 4.0 | 7.0 | 0.00 | 0.00 | 0.00 | 1 | 1007.2 |
| 20260509021822 | 75 | 190 | 4.0 | 8.0 | 0.00 | 0.00 | 0.00 | 1 | 1007.0 |
| 20260509021319 | 75 | 190 | 4.0 | 8.0 | 0.00 | 0.00 | 0.00 | 1 | 1007.0 |
| 20260509020821 | 75 | 190 | 3.0 | 6.0 | 0.00 | 0.00 | 0.00 | 1 | 1007.0 |
| 20260509015815 | 75 | 190 | 2.0 | 5.0 | 0.00 | 0.00 | 0.00 | 1 | 1007.0 |
| 20260509015316 | 75 | 190 | 2.0 | 7.0 | 0.00 | 0.00 | 0.00 | 1 | 1007.0 |
| 20260509014821 | 75 | 190 | 3.0 | 7.0 | 0.00 | 0.00 | 0.00 | 1 | 1007.0 |
| 20260509014315 | 75 | 190 | 3.0 | 10.0 | 0.00 | 0.00 | 0.00 | 1 | 1006.9 |
| 20260509013816 | 75 | 190 | 3.0 | 10.0 | 0.00 | 0.00 | 0.00 | 1 | 1006.9 |
| 20260509013310 | 75 | 190 | 3.0 | 6.0 | 0.00 | 0.00 | 0.00 | 1 | 1007.0 |
| 20260509012811 | 76 | 190 | 3.0 | 6.0 | 0.00 | 0.00 | 0.00 | 1 | 1007.0 |
| 20260509012311 | 76 | 190 | 2.0 | 6.0 | 0.00 | 0.00 | 0.00 | 1 | 1006.9 |
| 20260509011813 | 76 | 190 | 2.0 | 4.0 | 0.00 | 0.00 | 0.00 | 1 | 1006.9 |
| 20260509011311 | 76 | 190 | 2.0 | 5.0 | 0.00 | 0.00 | 0.00 | 1 | 1006.8 |
| 20260509010813 | 76 | 190 | 2.0 | 6.0 | 0.00 | 0.00 | 0.00 | 1 | 1006.8 |
| 20260509010313 | 76 | 190 | 2.0 | 6.0 | 0.00 | 0.00 | 0.00 | 1 | 1006.8 |
| 20260509005812 | 76 | 190 | 2.0 | 5.0 | 0.00 | 0.00 | 0.00 | 1 | 1006.8 |
| 20260509005544 | 76 | 190 | 2.0 | 5.0 | 0.00 | 0.00 | 0.00 | 1 | 1006.7 |
| 20260509004808 | 76 | 190 | 3.0 | 5.0 | 0.00 | 0.00 | 0.00 | 1 | 1006.7 |
| 20260509004310 | 77 | 190 | 3.0 | 6.0 | 0.00 | 0.00 | 0.00 | 6 | 1006.7 |
| 20260509003805 | 77 | 190 | 3.0 | 6.0 | 0.00 | 0.00 | 0.00 | 9 | 1006.7 |
| 20260509003318 | 77 | 190 | 2.0 | 6.0 | 0.00 | 0.00 | 0.00 | 12 | 1006.7 |
| 20260509002808 | 77 | 190 | 2.0 | 5.0 | 0.00 | 0.00 | 0.00 | 14 | 1006.7 |
| 20260509002537 | 77 | 190 | 2.0 | 5.0 | 0.00 | 0.00 | 0.00 | 17 | 1006.7 |
| 20260509001808 | 77 | 190 | 2.0 | 5.0 | 0.00 | 0.00 | 0.00 | 21 | 1006.7 |
| 20260509001306 | 78 | 190 | 2.0 | 6.0 | 0.00 | 0.00 | 0.00 | 23 | 1006.8 |
| 20260509000800 | 78 | 190 | 3.0 | 6.0 | 0.00 | 0.00 | 0.00 | 27 | 1006.7 |
| 20260509000256 | 78 | 190 | 3.0 | 6.0 | 0.00 | 0.00 | 0.00 | 30 | 1006.7 |
| 20260508235801 | 78 | 190 | 2.0 | 6.0 | 0.00 | 0.00 | 0.00 | 28 | 1006.8 |
| 20260508235251 | 78 | 190 | 2.0 | 5.0 | 0.00 | 0.00 | 0.00 | 27 | 1006.8 |
| 20260508234752 | 78 | 190 | 3.0 | 7.0 | 0.00 | 0.00 | 0.00 | 28 | 1006.8 |
| 20260508234251 | 78 | 190 | 3.0 | 7.0 | 0.00 | 0.00 | 0.00 | 32 | 1006.9 |
| 20260508233747 | 78 | 190 | 3.0 | 6.0 | 0.00 | 0.00 | 0.00 | 32 | 1006.8 |
| 20260508233247 | 78 | 190 | 3.0 | 6.0 | 0.00 | 0.00 | 0.00 | 36 | 1006.7 |
| 20260508232743 | 78 | 190 | 3.0 | 6.0 | 0.00 | 0.00 | 0.00 | 37 | 1006.7 |
| 20260508232248 | 78 | 190 | 2.0 | 6.0 | 0.00 | 0.00 | 0.00 | 36 | 1006.7 |
| 20260508232015 | 78 | 190 | 2.0 | 5.0 | 0.00 | 0.00 | 0.00 | 36 | 1006.7 |
| 20260508231010 | 79 | 190 | 3.0 | 7.0 | 0.00 | 0.00 | 0.00 | 42 | 1006.7 |
| 20260508230238 | 79 | 190 | 3.0 | 7.0 | 0.00 | 0.00 | 0.00 | 47 | 1006.7 |
| 20260508225736 | 79 | 190 | 2.0 | 5.0 | 0.00 | 0.00 | 0.00 | 45 | 1006.5 |
| 20260508225235 | 79 | 190 | 3.0 | 7.0 | 0.00 | 0.00 | 0.00 | 48 | 1006.6 |
| 20260508224739 | 79 | 190 | 3.0 | 7.0 | 0.00 | 0.00 | 0.00 | 49 | 1006.6 |
| 20260508224235 | 80 | 190 | 3.0 | 6.0 | 0.00 | 0.00 | 0.00 | 47 | 1006.5 |
| 20260508223737 | 79 | 190 | 2.0 | 4.0 | 0.00 | 0.00 | 0.00 | 41 | 1006.5 |
| 20260508223236 | 79 | 190 | 1.0 | 4.0 | 0.00 | 0.00 | 0.00 | 41 | 1006.8 |
| 20260508221738 | 79 | 190 | 0.0 | 3.0 | 0.00 | 0.00 | 0.00 | 39 | 1006.7 |
| 20260508221503 | 79 | 190 | 0.0 | 0.0 | 0.00 | 0.00 | 0.00 | 38 | 1007.0 |
| 20260508220956 | 78 | 190 | 0.0 | 0.0 | 0.00 | 0.00 | 0.00 | 39 | 1007.0 |
| 20260508220455 | 78 | 190 | 0.0 | 0.0 | 0.00 | 0.00 | 0.00 | 43 | 1007.1 |
| 20260508215725 | 78 | 190 | 0.0 | 0.0 | 0.00 | 0.00 | 0.00 | 46 | 1007.1 |
| 20260508215221 | 78 | 190 | 0.0 | 0.0 | 0.00 | 0.00 | 0.00 | 46 | 1007.0 |
| 20260508214950 | 78 | 190 | 0.0 | 0.0 | 0.00 | 0.00 | 0.00 | 43 | 1007.0 |
| 20260508214210 | 78 | 190 | 0.0 | 0.0 | 0.00 | 0.00 | 0.00 | 44 | 1007.0 |
| 20260508213710 | 78 | 190 | 0.0 | 0.0 | 0.00 | 0.00 | 0.00 | 39 | 1007.2 |
| 20260508213440 | 78 | 190 | 0.0 | 0.0 | 0.00 | 0.00 | 0.00 | 41 | 1007.3 |
| 20260508212707 | 78 | 190 | 0.0 | 0.0 | 0.00 | 0.00 | 0.00 | 43 | 1007.3 |
| 20260508212206 | 78 | 190 | 0.0 | 0.0 | 0.00 | 0.00 | 0.00 | 46 | 1007.5 |
| 20260508211934 | 78 | 190 | 0.0 | 0.0 | 0.00 | 0.00 | 0.00 | 47 | 1007.6 |
| 20260508211158 | 78 | 190 | 0.0 | 0.0 | 0.00 | 0.00 | 0.00 | 49 | 1007.5 |
| 20260508210927 | 78 | 190 | 0.0 | 0.0 | 0.00 | 0.00 | 0.00 | 44 | 1007.5 |
| 20260508210155 | 78 | 190 | 0.0 | 0.0 | 0.00 | 0.00 | 0.00 | 47 | 1007.6 |
| 20260508205924 | 78 | 190 | 0.0 | 0.0 | 0.00 | 0.00 | 0.00 | 46 | 1007.7 |
| 20260508205422 | 78 | 190 | 0.0 | 0.0 | 0.00 | 0.00 | 0.00 | 45 | 1007.7 |
| 20260508204648 | 78 | 190 | 0.0 | 0.0 | 0.00 | 0.00 | 0.00 | 44 | 1007.8 |
| 20260508204151 | 78 | 190 | 0.0 | 0.0 | 0.00 | 0.00 | 0.00 | 46 | 1008.0 |